FW8899 Weather Reports


Display with metric or nautical units.
time (UTC)temp
F
wind
direction
speed
MPH
gust
MPH
rain 1hr
in
rain 24hr
in
rain mn
in
humidity
%
barometer
mb
20260505083532 66 110 2.0 4.0 0.00 0.00 0.00 89 1011.9
20260505083029 66 103 0.0 13.0 0.00 0.00 0.00 89 1011.8
20260505082524 66 125 2.0 6.0 0.00 0.00 0.00 89 1011.9
20260505082021 66 149 2.0 6.0 0.00 0.00 0.00 89 1012.1
20260505081518 66 136 2.0 4.0 0.00 0.00 0.00 89 1011.9
20260505081015 66 117 3.0 6.0 0.00 0.00 0.00 88 1012.1
20260505080511 66 132 5.0 6.0 0.00 0.00 0.00 88 1011.9
20260505080008 66 158 3.0 4.0 0.00 0.00 0.00 88 1012.3
20260505075504 66 150 3.0 4.0 0.00 0.00 0.00 88 1012.2
20260505075001 66 115 1.0 7.0 0.00 0.00 0.00 88 1012.1
20260505074458 66 117 0.0 7.0 0.00 0.00 0.00 88 1011.9
20260505073955 66 114 3.0 6.0 0.00 0.00 0.00 87 1012.4
20260505073453 66 117 0.0 4.0 0.00 0.00 0.00 87 1012.3
20260505072950 66 158 3.0 6.0 0.00 0.00 0.00 87 1012.2
20260505072446 66 150 2.0 6.0 0.00 0.00 0.00 87 1012.1
20260505071942 66 120 7.0 9.0 0.00 0.00 0.00 87 1012.2
20260505071438 67 121 2.0 6.0 0.00 0.00 0.00 86 1012.4
20260505070937 67 107 0.0 6.0 0.00 0.00 0.00 86 1012.4
20260505070433 67 119 3.0 4.0 0.00 0.00 0.00 86 1012.2
20260505065928 67 111 3.0 4.0 0.00 0.00 0.00 86 1012.6
20260505065425 67 111 0.0 2.0 0.00 0.00 0.00 85 1012.8
20260505064922 67 112 2.0 6.0 0.00 0.00 0.00 85 1012.9
20260505064419 67 113 1.0 15.0 0.00 0.00 0.00 85 1013.0
20260505063918 67 119 4.0 7.0 0.00 0.00 0.00 85 1012.9
20260505063413 67 108 0.0 7.0 0.00 0.00 0.00 85 1013.1
20260505062910 67 109 2.0 6.0 0.00 0.00 0.00 84 1013.0
20260505062407 67 97 0.0 4.0 0.00 0.00 0.00 84 1013.0
20260505061904 67 107 0.0 2.0 0.00 0.00 0.00 84 1013.1
20260505061403 68 115 5.0 9.0 0.00 0.00 0.00 83 1013.1
20260505060859 68 116 3.0 4.0 0.00 0.00 0.00 83 1013.4
20260505060356 68 110 1.0 6.0 0.00 0.00 0.00 83 1012.9
20260505055852 68 118 4.0 6.0 0.00 0.00 0.00 83 1013.0
20260505055348 68 109 1.0 7.0 0.00 0.00 0.00 82 1013.1
20260505054845 68 115 2.0 9.0 0.00 0.00 0.00 82 1013.2
20260505054343 68 121 1.0 7.0 0.00 0.00 0.00 82 1013.2
20260505053841 68 101 4.0 7.0 0.00 0.00 0.00 81 1013.1
20260505053338 68 211 5.0 7.0 0.00 0.00 0.00 81 1013.1
20260505052834 68 110 5.0 9.0 0.00 0.00 0.00 81 1013.2
20260505052331 68 212 7.0 9.0 0.00 0.00 0.00 81 1013.2
20260505051828 68 121 2.0 9.0 0.00 0.00 0.00 80 1013.2
20260505051326 68 98 2.0 4.0 0.00 0.00 0.00 80 1012.9
20260505050824 68 119 2.0 4.0 0.00 0.00 0.00 80 1013.0
20260505050323 68 113 1.0 6.0 0.00 0.00 0.00 80 1013.3
20260505041752 69 121 1.0 2.0 0.00 0.00 0.00 76 1013.2
20260505041249 68 128 5.0 9.0 0.00 0.00 0.00 75 1013.0
20260505040746 69 106 0.0 4.0 0.00 0.00 0.00 75 1013.1
20260505040244 69 101 1.0 4.0 0.00 0.00 0.00 75 1013.2
20260505035741 69 116 2.0 2.0 0.00 0.00 0.00 75 1013.3
20260505035236 69 124 3.0 7.0 0.00 0.00 0.00 74 1013.4
20260505034733 69 108 0.0 2.0 0.00 0.00 0.00 74 1013.3
20260505034230 69 125 2.0 4.0 0.00 0.00 0.00 73 1013.2
20260505033727 69 103 1.0 6.0 0.00 0.00 0.00 73 1013.3
20260505033225 69 183 4.0 6.0 0.00 0.00 0.00 73 1013.3
20260505032722 70 106 0.0 4.0 0.00 0.00 0.00 72 1013.4
20260505032218 70 119 2.0 9.0 0.00 0.00 0.00 72 1013.2
20260505031716 70 110 2.0 4.0 0.00 0.00 0.00 72 1013.1
20260505031212 70 115 1.0 6.0 0.00 0.00 0.00 71 1013.1
20260505030709 70 126 2.0 7.0 0.00 0.00 0.00 71 1013.2
20260505030205 70 128 0.0 4.0 0.00 0.00 0.00 71 1013.0
20260505025701 70 105 0.0 2.0 0.00 0.00 0.00 71 1013.1
20260505025159 70 94 0.0 4.0 0.00 0.00 0.00 70 1013.1
20260505024657 70 106 1.0 4.0 0.00 0.00 0.00 70 1012.9
20260505024154 71 113 0.0 4.0 0.00 0.00 0.00 69 1013.0
20260505023652 70 108 0.0 2.0 0.00 0.00 0.00 69 1012.8
20260505023149 70 132 1.0 6.0 0.00 0.00 0.00 69 1012.6
20260505022646 70 107 1.0 4.0 0.00 0.00 0.00 69 1013.0
20260505022143 70 103 0.0 2.0 0.00 0.00 0.00 69 1012.6
20260505021639 71 101 0.0 2.0 0.00 0.00 0.00 68 1012.9
20260505021136 71 115 1.0 4.0 0.00 0.00 0.00 68 1012.6
20260505020632 71 149 3.0 4.0 0.00 0.00 0.00 69 1012.5
20260505020128 71 109 1.0 4.0 0.00 0.00 0.00 68 1012.4
20260505015625 71 111 1.0 4.0 0.00 0.00 0.00 67 1012.7
20260505015121 71 158 2.0 4.0 0.00 0.00 0.00 67 1012.5
20260505014619 71 110 0.0 4.0 0.00 0.00 0.00 67 1012.4
20260505014116 71 103 0.0 2.0 0.00 0.00 0.00 66 1012.6
20260505013613 71 106 0.0 6.0 0.00 0.00 0.00 65 1012.3
20260505013110 72 103 0.0 0.0 0.00 0.00 0.00 66 1012.5
20260505012609 72 112 2.0 6.0 0.00 0.00 0.00 65 1012.2
20260505012105 72 103 0.0 2.0 0.00 0.00 0.00 65 1012.0
20260505011601 72 106 1.0 2.0 0.00 0.00 0.00 64 1012.2
20260505011058 73 107 0.0 2.0 0.00 0.00 0.00 64 1012.3
20260505010553 73 137 3.0 4.0 0.00 0.00 0.00 63 1012.2
20260505010050 73 116 1.0 2.0 0.00 0.00 0.00 63 1012.2
20260505005546 73 106 0.0 2.0 0.00 0.00 0.00 62 1012.3
20260505005044 74 109 0.0 4.0 0.00 0.00 0.00 61 1012.5
20260505004541 74 92 1.0 6.0 0.00 0.00 0.00 60 1012.4
20260505004037 74 112 3.0 6.0 0.00 0.00 0.00 59 1012.5
20260505003535 74 120 2.0 4.0 0.00 0.00 0.00 60 1012.5
20260505003032 75 132 5.0 7.0 0.00 0.00 0.00 59 1012.4
20260505002532 75 165 2.0 4.0 0.00 0.00 0.00 59 1012.8
20260505002032 75 115 6.0 7.0 0.00 0.00 0.00 57 1012.6
20260505001528 76 111 1.0 6.0 0.00 0.00 0.00 57 1012.6
20260505001025 76 113 2.0 4.0 0.00 0.00 0.00 56 1012.8
20260505000523 77 220 5.0 9.0 0.00 0.00 0.00 55 1012.7
20260505000020 77 95 3.0 9.0 0.00 0.00 0.00 55 1012.8
20260504235517 77 99 0.0 6.0 0.00 0.00 0.00 54 1012.9
20260504235013 77 228 6.0 7.0 0.00 0.00 0.00 53 1012.8
20260504234511 78 134 2.0 6.0 0.00 0.00 0.00 52 1012.9
20260504234008 78 31 3.0 7.0 0.00 0.00 0.00 52 1012.6
20260504233502 78 134 4.0 7.0 0.00 0.00 0.00 51 1012.5
20260504233000 79 132 3.0 6.0 0.00 0.00 0.00 50 1012.7
20260504232457 79 138 2.0 7.0 0.00 0.00 0.00 50 1013.0
20260504231955 78 152 5.0 11.0 0.00 0.00 0.00 50 1013.1
20260504231451 79 122 4.0 7.0 0.00 0.00 0.00 49 1013.1
20260504230947 79 115 5.0 19.0 0.00 0.00 0.00 49 1013.0
20260504230444 78 134 3.0 11.0 0.00 0.00 0.00 49 1013.4
20260504225943 78 208 7.0 9.0 0.00 0.00 0.00 49 1013.4
20260504225439 79 143 2.0 11.0 0.00 0.00 0.00 47 1013.7
20260504224936 79 217 4.0 7.0 0.00 0.00 0.00 47 1013.6
20260504224433 79 74 2.0 9.0 0.00 0.00 0.00 46 1013.4
20260504223930 79 164 1.0 9.0 0.00 0.00 0.00 46 1013.8
20260504223425 80 141 6.0 11.0 0.00 0.00 0.00 46 1014.0
20260504222921 80 120 3.0 6.0 0.00 0.00 0.00 46 1013.8
20260504222419 80 202 9.0 13.0 0.00 0.00 0.00 45 1013.9
20260504221917 79 119 2.0 13.0 0.00 0.00 0.00 48 1013.9
20260504221414 80 142 3.0 6.0 0.00 0.00 0.00 46 1013.9
20260504220911 79 115 3.0 4.0 0.00 0.00 0.00 46 1013.9
20260504220407 80 112 10.0 13.0 0.00 0.00 0.00 46 1014.0
20260504215905 80 187 7.0 7.0 0.00 0.00 0.00 46 1014.1
20260504215401 80 91 1.0 6.0 0.00 0.00 0.00 47 1014.2
20260504214857 80 99 1.0 6.0 0.00 0.00 0.00 46 1014.1
20260504214354 80 109 4.0 13.0 0.00 0.00 0.00 45 1014.3
20260504213851 80 125 0.0 4.0 0.00 0.00 0.00 47 1014.1
20260504213347 79 140 3.0 7.0 0.00 0.00 0.00 46 1014.5
20260504212844 80 135 4.0 6.0 0.00 0.00 0.00 44 1014.7
20260504212340 80 143 4.0 9.0 0.00 0.00 0.00 46 1014.6
20260504211838 80 177 7.0 11.0 0.00 0.00 0.00 44 1014.4
20260504211334 80 127 4.0 7.0 0.00 0.00 0.00 45 1014.7
20260504210832 79 239 7.0 13.0 0.00 0.00 0.00 44 1014.6
20260504210328 80 190 4.0 7.0 0.00 0.00 0.00 45 1015.1
20260504205826 79 145 7.0 15.0 0.00 0.00 0.00 45 1015.1
20260504205323 80 201 7.0 9.0 0.00 0.00 0.00 44 1014.9
20260504204821 79 110 2.0 4.0 0.00 0.00 0.00 47 1015.1
20260504204320 79 113 4.0 9.0 0.00 0.00 0.00 46 1015.1
20260504203819 79 246 13.0 17.0 0.00 0.00 0.00 44 1015.4
20260504203315 79 245 9.0 13.0 0.00 0.00 0.00 45 1015.4
20260504202810 79 173 9.0 19.0 0.00 0.00 0.00 44 1015.5
20260504202308 80 125 22.0 30.0 0.00 0.00 0.00 43 1015.5
20260504201805 79 161 5.0 7.0 0.00 0.00 0.00 46 1015.8
20260504201302 79 155 7.0 9.0 0.00 0.00 0.00 48 1015.8
20260504200800 79 244 5.0 11.0 0.00 0.00 0.00 47 1015.9
20260504200255 79 138 2.0 6.0 0.00 0.00 0.00 48 1016.1
20260504195752 79 100 1.0 9.0 0.00 0.00 0.00 47 1016.0
20260504195248 79 119 1.0 9.0 0.00 0.00 0.00 48 1016.1
20260504194745 79 98 3.0 17.0 0.00 0.00 0.00 47 1016.2
20260504194241 78 157 7.0 9.0 0.00 0.00 0.00 45 1016.3
20260504193737 78 73 3.0 11.0 0.00 0.00 0.00 46 1016.8
20260504193235 78 152 1.0 6.0 0.00 0.00 0.00 49 1016.6
20260504192733 78 71 5.0 17.0 0.00 0.00 0.00 49 1016.6
20260504192231 78 274 6.0 7.0 0.00 0.00 0.00 48 1016.6
20260504191730 78 211 6.0 9.0 0.00 0.00 0.00 48 1016.8
20260504191226 77 150 2.0 7.0 0.00 0.00 0.00 48 1016.8
20260504190721 78 130 2.0 7.0 0.00 0.00 0.00 50 1017.4
20260504190218 77 137 3.0 15.0 0.00 0.00 0.00 47 1017.3
20260504185715 77 210 5.0 21.0 0.00 0.00 0.00 49 1017.0
20260504185212 78 212 2.0 11.0 0.00 0.00 0.00 48 1016.9
20260504184708 78 134 3.0 11.0 0.00 0.00 0.00 48 1017.1
20260504184203 77 195 8.0 15.0 0.00 0.00 0.00 48 1017.2
20260504183659 77 109 1.0 13.0 0.00 0.00 0.00 48 1017.4
20260504183157 77 111 2.0 9.0 0.00 0.00 0.00 49 1017.5
20260504182654 77 239 9.0 11.0 0.00 0.00 0.00 48 1017.6
20260504182152 77 97 7.0 9.0 0.00 0.00 0.00 48 1017.5
20260504181649 76 136 5.0 15.0 0.00 0.00 0.00 48 1017.8
20260504181147 75 128 3.0 9.0 0.00 0.00 0.00 49 1017.6
20260504180646 76 159 7.0 17.0 0.00 0.00 0.00 49 1017.6
20260504180144 76 116 3.0 13.0 0.00 0.00 0.00 50 1017.8
20260504175641 76 96 2.0 13.0 0.00 0.00 0.00 52 1017.6
20260504175137 75 153 4.0 21.0 0.00 0.00 0.00 50 1017.9
20260504174636 76 106 0.0 6.0 0.00 0.00 0.00 50 1017.8
20260504174132 77 134 6.0 17.0 0.00 0.00 0.00 50 1018.1
20260504173629 76 150 4.0 6.0 0.00 0.00 0.00 51 1018.1
20260504173127 76 154 3.0 17.0 0.00 0.00 0.00 53 1018.1
20260504172623 76 41 5.0 15.0 0.00 0.00 0.00 51 1018.2
20260504172120 76 149 5.0 9.0 0.00 0.00 0.00 50 1018.2
20260504171616 76 187 4.0 13.0 0.00 0.00 0.00 50 1018.1
20260504171113 76 242 4.0 7.0 0.00 0.00 0.00 51 1018.1
20260504170609 75 236 5.0 9.0 0.00 0.00 0.00 52 1018.2
20260504170107 76 152 3.0 9.0 0.00 0.00 0.00 51 1018.2
20260504150952 71 138 4.0 17.0 0.00 0.00 0.00 61 1019.1
20260504150449 71 108 3.0 6.0 0.00 0.00 0.00 61 1019.2
20260504140916 67 157 2.0 4.0 0.00 0.00 0.00 72 1019.2
20260504140411 66 117 2.0 7.0 0.00 0.00 0.00 73 1019.2
20260504130337 60 136 2.0 4.0 0.00 0.00 0.00 84 1019.3
20260504120300 53 98 0.0 0.0 0.00 0.00 0.00 96 1019.2
20260504110224 53 105 0.0 0.0 0.00 0.00 0.00 96 1018.8
20260504100148 53 105 0.0 0.0 0.00 0.00 0.00 96 1019.1
20260504090110 54 105 0.0 0.0 0.00 0.00 0.00 94 1018.8